Location: Landsberg
(48.0476°N, 10.8696°E)
Time: 11:20:13
(UTC+00:00)

Daily predictions for brighter satellites

Satellite Brightness Start Highest point End
(mag) Time Altitude Azimuth Time Altitude Azimuth Time Altitude Azimuth
ATLAS 3B R/B 3.2 18:28:57 10° S 18:35:31 44° ESE 18:42:32 10° NE
COSMOS 2455 4.3 18:33:40 10° NNW 18:38:38 25° NE 18:43:35 10° E
CSL-04 Rocket 4.0 18:34:32 10° SE 18:39:52 53° ENE 18:45:09 10° N
SJ-6B 3.1 18:36:41 10° S 18:40:38 75° WSW 18:44:38 10° NNW
In-Cosmos 22 Rocket 4.2 18:38:38 10° N 18:44:06 75° ENE 18:49:40 10° SSE
Cosmos 1025 Rocket 3.9 18:40:27 10° NNW 18:44:44 56° W 18:49:01 10° S
PAYLOAD B 4.4 18:39:20 10° SSE 18:44:53 81° WSW 18:50:31 10° NNW
Cosmos 2181 Rocket 4.0 18:39:52 10° S 18:46:04 82° E 18:52:23 10° N
Okean 2 Rocket 4.4 18:43:28 10° SE 18:46:57 22° E 18:50:25 10° NE
Cosmos 1992 Rocket 4.0 18:43:33 10° SSW 18:48:44 73° ESE 18:53:58 10° NNE
MOS 1-B 4.4 18:43:04 10° SSE 18:48:49 72° ENE 18:54:37 10° NNW
CZ-4C R/B 4.0 18:43:25 10° NW 18:49:12 31° NNE 18:56:07 10° E
SPOT 5 4.3 18:47:34 10° ESE 18:51:51 25° ENE 18:56:03 10° N
Cosmos 2297 Rocket 3.3 18:48:53 10° NNW 18:53:47 29° NE 18:58:39 10° ESE
Cosmos 2369 Rocket 3.6 18:51:58 10° SW 18:57:22 44° NW 19:02:46 10° NNE
Cosmos 1503 Rocket 4.5 18:52:47 10° NNW 18:58:00 48° ENE 19:03:09 10° SE
Meteor 1-11 4.3 18:54:54 10° N 19:00:36 85° E 19:06:21 10° SSE
BlueWalker 3 2.9 18:57:51 10° SSW 19:01:06 27° SE 19:04:24 10° ENE
Terra 3.6 19:01:35 10° E 19:04:35 17° ENE 19:07:36 10° NNE
ATLAS 5 CENTAUR R/B 1.0 19:02:06 10° SW 19:05:26 83° NW 19:09:11 10° NE
PSLV R/B 3.6 19:03:57 10° SSE 19:07:40 87° ENE 19:11:28 10° NNW
Cosmos 2098 Rocket 3.0 19:03:11 10° S 19:07:58 90° WSW 19:11:52 10° N
CARTOSAT-1 3.5 19:04:07 10° SSE 19:08:23 77° ENE 19:12:39 10° N
Cosmos 1455 4.2 19:07:10 10° SW 19:10:20 30° WNW 19:13:33 10° N
Sich 1 Rocket 4.2 19:06:19 10° SSE 19:10:21 37° E 19:14:27 10° NNE
Okean 1 Rocket 4.3 19:06:57 10° SE 19:10:27 24° E 19:14:01 10° NE
Okean-O 2.9 19:11:08 10° SSE 19:15:25 52° ENE 19:19:43 10° N
Cosmos 1932 4.5 19:09:37 10° NW 19:15:54 83° NE 19:21:31 13° SE
Cosmos 1975 Rocket 4.0 19:11:46 10° NNW 19:15:57 48° W 19:20:05 10° SSW
CZ-4B R/B 3.8 19:12:00 10° S 19:17:33 60° WSW 19:23:05 10° NNW
Ariane Rocket 4.4 19:16:22 13° ESE 19:19:31 23° ENE 19:23:23 10° N
Cosmos 2263 Rocket 4.3 19:16:57 10° N 19:19:51 14° NNE 19:22:43 10° ENE
CZ-4C R/B 3.4 19:18:22 10° NNE 19:21:36 38° E 19:24:45 10° S
Nadezhda 3 Rocket 3.9 19:16:08 10° S 19:22:14 72° E 19:28:25 10° NNE
Cosmos 1821 Rocket 4.2 19:17:21 10° NNW 19:23:31 72° W 19:29:34 10° S
USA 186 3.3 19:21:24 10° SSW 19:24:11 33° W 19:26:57 10° NNW
SL-27 R/B 3.8 19:21:49 10° NW 19:24:24 29° WSW 19:26:57 10° SSW
Genesis I 3.2 19:21:01 10° NNW 19:24:36 58° NE 19:26:55 20° ESE
Cosmos 44 4.3 19:20:29 10° S 19:25:01 28° ESE 19:29:32 10° ENE
BREEZE-M R/B 1.7 19:23:44 10° WNW 19:26:20 77° NNE 19:27:39 24° E
USA 267 3.6 19:19:52 10° NE 19:26:24 72° NNW 19:32:55 10° WSW
Okean O Rocket 2.1 19:25:56 10° S 19:30:14 59° W 19:34:35 10° NNW
Aureole 1 Rocket 4.5 19:32:28 10° NNE 19:33:48 12° NE 19:34:29 12° ENE
CZ-4 R/B 3.8 19:32:32 10° SW 19:35:32 21° W 19:38:31 10° NW
Cosmos 1536 Rocket 3.5 19:37:40 10° N 19:42:07 87° E 19:45:49 15° S
SJ 16-02 4.3 19:41:24 10° WNW 19:43:03 12° W 19:44:43 10° WSW
Resurs 01 Rocket 2.8 19:40:54 10° S 19:45:04 41° W 19:49:17 10° NNW
IRS-1C Rocket 4.1 19:42:38 18° SSE 19:46:31 67° ENE 19:51:46 10° N
MOS 1 4.3 19:43:34 14° SSE 19:48:37 89° ENE 19:54:22 10° NNW
CENTAUR R/B 4.0 19:43:12 10° NW 19:50:30 41° NNE 19:57:39 14° E
Celestis-02/Orion 38 4.5 19:48:37 23° SE 19:51:53 79° ENE 19:56:59 10° NNW
NOSS 3-1 (A) 3.2 19:46:59 10° SW 19:51:59 78° NW 19:58:05 10° NE
ERS-1 Rocket 3.2 19:51:26 25° SE 19:54:08 51° ENE 19:58:59 10° N
SPOT 3 Rocket 4.2 19:55:09 25° ESE 19:57:33 41° ENE 20:02:24 10° N
Tiangong 0.0 19:56:19 10° SW 19:57:17 15° SSW 19:57:17 15° SSW
USA 229 DEB 3.6 19:54:57 10° SSW 20:00:50 52° ESE 20:07:19 10° NE
USA 229 3.6 19:55:03 10° SSW 20:00:56 52° ESE 20:07:25 10° NE
Cosmos 1934 Rocket 4.0 19:54:50 10° N 20:01:01 84° W 20:06:25 14° S
Cosmos 1339 Rocket 4.4 19:56:24 10° S 20:02:33 89° E 20:08:40 10° N
Cosmos 2151 Rocket 4.0 19:58:12 10° SSW 20:02:33 63° WNW 20:06:58 10° N
USA 234 4.0 19:58:35 17° SSE 20:03:19 43° SW 20:09:30 10° WNW
USA 281 3.6 19:59:01 13° S 20:04:47 60° WSW 20:11:19 10° NNW
ATLAS CENTAUR R/B 2.5 20:05:32 10° NNW 20:08:50 28° NE 20:09:58 24° ENE
Cosmos 2227 Rocket 2.6 20:04:17 10° NNW 20:09:50 52° ENE 20:12:21 30° ESE
Cosmos 1980 Rocket 3.8 20:13:32 16° E 20:13:32 16° E 20:15:51 10° ENE
Iridium 2 4.0 20:10:25 10° NNW 20:13:14 43° W 20:14:16 30° SW
Cosmos 1892 Rocket 3.6 20:12:49 10° N 20:17:06 59° ENE 20:18:10 44° SE
SL-4 R/B 1.7 20:13:46 10° WNW 20:17:20 70° NNE 20:17:57 54° ENE
Cosmos 371 Rocket 4.4 20:13:29 10° NW 20:17:57 39° WSW 20:21:07 17° SSW
Landsat 4 3.6 20:17:01 44° S 20:17:59 72° WSW 20:21:31 10° NNW
MetOp-B 4.4 20:15:38 21° S 20:19:16 66° WSW 20:24:38 10° NNW
Cosmos 1697 Rocket 3.0 20:18:57 34° SSE 20:20:35 42° ESE 20:25:53 10° NE
Cosmos 2360 4.2 20:17:18 16° S 20:21:41 57° ESE 20:27:16 10° NE
Okean 2 Rocket 4.4 20:20:26 10° SW 20:24:42 41° WNW 20:28:59 10° N
COSMOS 2455 2.8 20:19:17 10° NW 20:25:22 90° SW 20:27:59 36° SSE
ATLAS 3B R/B 3.6 20:19:05 10° WSW 20:26:10 57° NW 20:33:43 10° NE
SPOT 5 3.6 20:26:04 21° S 20:29:30 56° W 20:34:41 10° NNW
MetOp-A 3.9 20:30:40 39° ENE 20:30:40 39° ENE 20:34:14 10° N
NOSS 8 (H) 4.3 20:28:13 10° NW 20:31:22 83° NE 20:31:30 80° E
NOSS 8 (E) 4.4 20:28:41 10° NW 20:31:49 71° SW 20:31:59 69° SSW
Cosmos 405 Rocket 2.5 20:33:26 74° ESE 20:33:28 74° E 20:37:11 10° NNE
Cosmos 1898 Rocket 3.9 20:29:42 10° NNW 20:34:48 48° ENE 20:36:04 40° E
Spot 2 Rocket 3.4 20:36:25 42° SSE 20:38:10 86° WSW 20:43:15 10° NNW
Cosmos 2297 Rocket 2.5 20:32:38 10° NW 20:38:12 59° WSW 20:40:35 33° S
CZ-4C R/B 3.0 20:31:35 10° NW 20:38:39 80° NE 20:42:37 35° SE
BlueWalker 3 2.1 20:35:18 10° WSW 20:39:07 69° NNW 20:40:37 34° NE
USA 81 4.2 20:38:45 47° SE 20:39:44 54° E 20:44:53 10° NNE
ARIANE 5 R/B 4.3 20:39:49 20° ENE 20:40:06 20° ENE 20:43:24 10° NNE
Terra 1.9 20:40:08 43° S 20:41:39 73° WSW 20:46:23 10° NNW
Cosmos 1656 4.2 20:38:21 10° SW 20:43:51 60° WNW 20:49:18 10° NNE
Cosmos 1455 Rocket 3.0 20:46:46 57° SSW 20:47:39 86° W 20:52:04 10° N
Okean 1 Rocket 4.4 20:44:00 10° SW 20:48:04 38° WNW 20:52:16 10° N
Spot 1 4.0 20:43:56 10° NNE 20:48:35 74° ESE 20:49:02 67° SSE
USA 245 4.4 20:46:54 31° SSW 20:49:02 52° WSW 20:53:21 10° NNW
ATLAS 5 CENTAUR R/B 4.2 20:47:43 10° WNW 20:50:03 16° NNW 20:52:38 10° NNE
Cosmos 332 Rocket 4.3 20:45:49 10° NNW 20:50:32 52° WSW 20:51:53 40° SSW
Cosmos 1459 Rocket 4.2 20:44:49 10° N 20:50:44 51° ENE 20:52:04 44° ESE
Cosmos 2219 3.3 20:47:39 10° NNW 20:53:17 63° ENE 20:54:33 50° ESE
Ariane Rocket 3.4 20:56:30 40° SSW 20:58:04 58° W 21:03:04 10° NNW
Cosmos 1437 Rocket 3.2 20:56:22 10° NNW 21:00:12 52° W 21:00:22 52° WSW
Cosmos 1763 Rocket 3.6 20:57:45 25° SW 21:00:40 71° WNW 21:05:50 10° NNE
Cosmos 2263 Rocket 2.5 20:59:37 10° NNW 21:05:08 53° ENE 21:06:06 47° E
Cosmos 44 4.1 21:00:37 10° SW 21:05:57 58° NW 21:11:13 10° NNE
USA 267 4.3 21:02:50 10° ENE 21:08:55 43° N 21:15:02 10° WNW
ARGOS Delta rocket 4.3 21:08:36 49° SSW 21:09:55 68° W 21:15:24 10° NNW
Cosmos 2082 3.8 21:06:02 10° NNW 21:11:38 58° ENE 21:12:29 53° E
Cosmos 2173 Rocket 3.9 21:09:12 10° N 21:15:38 81° E 21:17:01 57° SSE
NOSS 3-2 (A) 4.2 21:09:28 10° NW 21:16:39 64° NE 21:19:58 38° ESE
Aureole 1 Rocket 4.4 21:14:23 10° NW 21:15:56 24° WNW 21:15:56 24° WNW
Meteor 2-3 Rocket 3.7 21:13:26 10° N 21:19:07 67° ENE 21:19:41 63° ESE
Cosmos 540 Rocket 3.7 21:18:45 41° SW 21:20:25 66° WNW 21:25:32 10° NNE
Cosmos 1606 4.4 21:23:39 25° NNE 21:23:39 25° NNE 21:25:20 10° NNE
MOS 1 Rocket 3.6 21:25:22 50° W 21:25:22 50° W 21:29:34 10° NNW
Cosmos 2058 3.7 21:22:57 10° NNW 21:26:27 44° WNW 21:26:27 44° WNW
Meteor 2-15 4.3 21:22:59 10° N 21:29:09 82° E 21:29:58 68° SSE
Cosmos 1626 Rocket 3.8 21:25:08 10° NNW 21:29:06 67° NW 21:29:06 67° NW
Cosmos 372 Rocket 3.9 21:26:47 10° NNW 21:32:01 75° WSW 21:32:09 74° WSW
Meteor 2-15 Rocket 4.4 21:26:19 10° N 21:32:27 67° ENE 21:33:02 63° ESE
Cosmos 1864 Rocket 4.3 21:28:51 10° N 21:35:03 76° E 21:35:41 69° SE
Cosmos 1802 Rocket 3.9 21:31:48 10° N 21:38:07 88° ENE 21:38:59 69° SSE
SL-16 R/B 4.1 21:41:08 17° ENE 21:41:08 17° ENE 21:43:02 10° NE
CENTAUR R/B 3.2 21:33:50 10° NW 21:42:07 84° SW 21:44:48 52° SSE
Cosmos 841 Rocket 3.5 21:43:35 76° NNE 21:43:35 76° NNE 21:48:20 10° NNE
Cosmos 2016 Rocket 3.8 21:39:15 10° N 21:45:24 84° E 21:45:55 76° SSE
ATLAS CENTAUR R/B 3.1 21:43:08 10° NW 21:45:04 25° WNW 21:45:04 25° WNW
Cosmos 1544 Rocket 4.3 21:49:27 48° NW 21:49:27 48° NW 21:53:09 10° N
Cosmos 1844 Rocket 3.9 21:44:34 10° NNW 21:49:28 30° NE 21:50:30 28° ENE
H-2A R/B 3.9 21:54:16 32° N 21:54:16 32° N 21:56:26 10° N
Cosmos 2100 Rocket 4.4 21:46:50 10° NNW 21:53:00 54° W 21:54:16 46° SW
Cosmos 2227 Rocket 3.5 21:48:48 10° NW 21:53:36 29° WSW 21:54:10 28° WSW
Cosmos 1980 Rocket 2.1 21:55:14 77° W 21:55:29 79° WNW 22:01:11 10° NNE
Cosmos 967 Rocket 4.3 21:53:47 10° NW 22:00:19 89° ENE 22:00:44 80° SE
Cosmos 1937 Rocket 4.2 21:59:02 10° NNW 22:03:46 45° W 22:03:46 45° W
Cosmos 1697 Rocket 4.0 22:00:32 16° WSW 22:04:36 38° NW 22:09:53 10° NNE
Cosmos 2123 Rocket 4.0 22:05:46 64° SW 22:06:35 72° W 22:12:56 10° N
Meteor 1-27 4.2 22:10:41 76° NNE 22:10:41 76° NNE 22:15:49 10° NNE
CZ-2C R/B 4.3 22:06:48 10° N 22:10:47 57° NNW 22:10:47 57° NNW
Cosmos 2228 4.4 22:14:50 35° NW 22:14:50 35° NW 22:17:54 10° N
ARIANE 5 R/B 3.7 22:17:17 41° NW 22:17:17 41° NW 22:20:34 10° NNW
CZ-4C R/B 4.0 22:20:29 10° NW 22:26:56 32° WSW 22:27:43 31° SW
Cosmos 2369 4.0 22:27:49 57° WNW 22:28:11 59° WNW 22:33:47 10° NNE
Cosmos 2227 4.3 22:22:30 10° NNW 22:27:45 75° NNW 22:27:45 75° NNW
Lacrosse 4 Rocket 3.6 22:33:41 20° NNE 22:33:41 20° NNE 22:35:00 10° NNE
NOSS 3-2 (C) 4.0 22:25:29 10° NW 22:32:52 83° NE 22:34:31 62° SE
H-2A R/B 4.2 22:29:17 10° NNE 22:30:48 20° NE 22:30:48 20° NE
ALOS 2 3.8 22:35:59 40° N 22:35:59 40° N 22:38:51 10° N
Cosmos 2233 Rocket 4.1 22:29:14 10° NNW 22:35:19 64° W 22:35:19 64° W
Cosmos 2061 Rocket 4.4 22:35:31 10° NNW 22:41:44 52° W 22:42:00 52° W
Cosmos 1447 Rocket 4.4 22:42:34 84° N 22:42:34 84° N 22:48:32 10° N
Cosmos 1464 Rocket 4.3 22:38:38 10° N 22:44:54 55° ENE 22:44:59 55° E
Cosmos 2263 Rocket 3.6 22:44:04 10° NW 22:47:47 26° W 22:47:47 26° W
Cosmos 2360 Rocket 3.5 22:51:06 29° ENE 22:51:06 29° ENE 22:54:28 10° NE
USA 267 4.2 22:45:03 10° E 22:51:11 45° NNE 22:57:20 10° WNW
SL-19 R/B 4.4 22:46:22 10° NNE 22:51:47 75° NW 22:51:47 75° NW
Cosmos 909 Rocket 4.4 22:55:34 73° S 22:56:21 80° ESE 23:05:34 10° NE
Cosmos 1891 Rocket 4.4 22:53:20 10° N 22:59:17 83° NNW 22:59:17 83° NNW
Cosmos 1513 Rocket 4.4 22:53:51 10° N 22:59:38 80° NNE 22:59:38 80° NNE
Cosmos 2333 Rocket 3.4 23:03:47 32° ENE 23:03:47 32° ENE 23:07:23 10° NE
Cosmos 2322 Rocket 2.9 23:03:59 45° ENE 23:03:59 45° ENE 23:08:04 10° NE
Lacrosse 5 3.7 23:05:57 23° ENE 23:05:57 23° ENE 23:07:55 10° ENE
Cosmos 2219 Rocket 3.9 23:05:42 22° ENE 23:05:42 22° ENE 23:08:33 10° NE
Cosmos 2034 Rocket 4.3 23:00:58 10° N 23:07:00 54° ENE 23:07:00 54° ENE
Cosmos 1809 Rocket 4.5 23:21:05 75° NW 23:21:05 75° NW 23:27:02 10° N
SL-16 R/B 2.5 23:22:57 64° NNW 23:22:57 64° NNW 23:28:06 10° NNE
Cosmos 1844 4.1 23:18:49 10° NNW 23:23:28 57° NW 23:23:28 57° NW
CENTAUR R/B 4.4 23:25:29 10° WNW 23:31:56 26° WSW 23:31:56 26° WSW
USA 238 DEB 3.8 23:25:15 10° NW 23:32:37 78° SW 23:32:58 77° SSW
USA 238 3.8 23:25:21 10° NW 23:32:42 79° SW 23:33:06 77° SSW
Cosmos 1844 Rocket 3.5 23:28:13 10° NW 23:32:08 42° WNW 23:32:08 42° WNW
Cosmos 1980 Rocket 4.4 23:36:55 11° W 23:40:26 19° NW 23:44:22 10° N
Meteor 2-2 Rocket 4.4 23:48:58 76° NE 23:48:58 76° NE 23:54:28 10° NNE
Timation 2 Rocket 4.2 23:42:32 10° NNW 23:48:19 61° WNW 23:48:19 61° WNW
Cosmos 1816 Rocket 4.4 23:51:35 76° NW 23:51:35 76° NW 23:57:30 10° N
